{"data":{"norad_id":64272,"intl_designator":"2025-120S","name":"STARLINK-34001","alt_names":[],"object_type":"PAYLOAD","status":"ACTIVE","operator":null,"country":"US","launch_date":"2025-06-04","launch_site_code":"AFWTR","launch_vehicle":null,"mission":null,"orbit_class":"UNKNOWN","rcs_meters":null,"size_class":null,"mass_kg":null,"dimensions":null,"purposes":["comms"],"wikipedia_slug":null,"has_3d_model":false,"image_url":null,"decayed_at":null,"tle_current":{"epoch":"2026-05-25T02:55:29.369280Z","epoch_age_seconds":68025,"freshness":"FRESH","line1":"1 64272U 25120S   26145.12186770  .00014817  00000+0  51122-3 0  9995","line2":"2 64272  53.1611 121.9959 0001580  98.7004 261.4176 15.30210730 55513","mean_motion":15.3021073,"eccentricity":0.000158,"inclination_deg":53.1611,"raan_deg":121.9959,"arg_perigee_deg":98.7004,"mean_anomaly_deg":261.4176,"bstar":0.00051122,"rev_number":5551,"period_min":94.104685829775,"perigee_km":474.10020719561,"apogee_km":476.26585632565,"semimajor_km":6853.3200317606,"source":"CELESTRAK","updated_at":"2026-05-25T13:38:20.360763Z"}}}